Regional Weather Roundup
Issued by NWS Nashville, TN

Home | Current Version | Previous Version | Text Only | Print | Product List | Glossary On
Versions: 1 2 3 4 5 6 7 8 9 10 11 12 13 14 15 16 17 18 19 20 21 22 23 24 25 26 27 28 29 30 31 32 33 34 35 36 37 38 39 40 41 42 43 44 45 46 47 48 49 50
000
ASUS44 KOHX 240210
RWROHX
MIDDLE TENNESSEE HOURLY WEATHER ROUNDUP
NATIONAL WEATHER SERVICE NASHVILLE TN
800 PM CST THU FEB 23 2017

NOTE: "FAIR" INDICATES FEW OR NO CLOUDS BELOW 12,000 FEET WITH
NO SIGNIFICANT WEATHER AND/OR OBSTRUCTIONS TO VISIBILITY.

* THESE REPORTS ARE NOT UNDER NWS QUALITY CONTROL AND MAY NOT
  REPORT WEATHER SUCH AS PRECIPITATION AND FOG.


TNZ005>011-023>034-057-059-062>066-078-080-240300
...NORTHERN MIDDLE TENNESSEE...

CITY           SKY/WX    TMP DP  RH WIND       PRES   REMARKS
CLARKSVILLE    CLEAR     67  53  61 S7        29.72S
CROSSVILLE     CLEAR     60  51  72 S3        29.84S
GALLATIN       CLEAR     63  54  72 SE3       29.79R
DICKSON        CLEAR     65  54  67 S6        29.73S
LIVINGSTON     CLEAR     66  51  58 S5        29.81S
NASHVILLE      PTCLDY    63  53  70 S7        29.76R
PORTLAND       CLEAR     64  54  68 S7        29.76R
SMYRNA         CLEAR     64  54  69 S6        29.77S
SPARTA         MOCLDY    54  50  87 CALM      29.79S
SPRINGFIELD    PTCLDY    64  55  72 SE6       29.73S
WEST NASHVILLE CLEAR     64  54  68 SE5       29.75S
$$
TNZ056-058-060-061-075>077-079-093>097-240300
...SOUTHERN MIDDLE TENNESSEE...

CITY           SKY/WX    TMP DP  RH WIND       PRES   REMARKS
COLUMBIA       CLEAR     64  63  94 SE5       29.74S
FAYETTEVILLE   CLEAR     64  55  72 S8        29.80R
MCMINNVILLE    CLEAR     59  54  82 CALM      29.80S
MURFREESBORO   CLEAR     63  54  72 SE6       29.77S
SHELBYVILLE    CLEAR     63  55  77 SE5       29.79S
TULLAHOMA      CLEAR     63  52  67 S5        29.81R
WINCHESTER     CLEAR     57  52  82 CALM      29.82R
$$


...KEY TO REMARKS...
VSB - VISIBILITY IN MILES
WCI - WIND CHILL INDEX
HX  - HEAT INDEX




USA.gov is the U.S. government's official web portal to all federal, state and local government web resources and services.